Wetbulb
43.70 39.20 33.36 35.92 37.25 37.20 36.02 34.36 34.07 36.99 39.75 35.63 35.15 36.23 38.70 39.75 38.65 37.18 37.31 37.66 36.93 37.86 39.95 39.67 39.28 39.12 37.99 37.67 37.39 38.15 38.22 39.46 41.20 42.34 45.76 49.55 50.46 48.76 47.36 47.69 46.25 46.08 46.95 48.61
40.06 34.17 38.51 40.72 40.05 37.49 37.04 34.82 33.37 37.01 39.58 37.01 35.22 35.62 38.90 39.13 38.01 38.18 37.34 37.24 36.13 36.24 37.63 38.09 36.86 36.53 37.37 36.21 36.01 36.66 37.20 38.53 39.82 42.24 42.82 47.68 47.99 46.07 44.74 43.92 43.74 43.12 43.64 44.49
36.73 37.93 41.42 39.97 38.33 36.03 35.56 32.56 32.08 32.42 36.59 37.42 34.82 32.75 35.29 38.24 38.57 37.71 36.86 37.52 37.25 35.33 34.91 35.51 35.57 34.22 36.51 36.56 34.74 35.01 36.05 37.21 38.60 41.55 42.45 42.62 43.15 41.61 40.20 40.40 40.10 40.38 40.94 41.36
38.49 40.84 39.34 38.62 37.66 35.71 31.80 37.04 36.39 35.04 31.43 25.89 35.16 23.08 32.76 35.26 35.40 35.28 35.06 34.15 35.65 34.50 35.13 34.96 34.28 33.15 33.17 35.25 36.59 36.32 35.21 36.05 36.79 38.27 39.76 39.05 38.07 37.10 38.08 38.21 38.92 39.02 38.87 38.56
36.31 36.98 36.66 37.25 36.17 36.65 34.81 37.78 35.41 34.88 30.87 29.96 29.50 25.85 30.15 35.75 34.44 35.11 33.98 33.82 34.52 33.60 33.46 32.82 32.85 34.04 34.32 34.49 33.86 36.57 35.98 34.97 35.03 35.72 36.72 37.24 36.69 37.74 37.65 37.59 37.01 37.35 37.92 37.69
38.14 40.52 38.67 36.86 38.84 38.38 38.79 36.08 37.02 34.79 31.46 24.95 29.47 27.59 28.15 32.24 34.67 35.54 35.92 34.22 34.31 33.06 32.57 32.91 33.50 34.39 33.17 32.83 32.39 32.32 32.99 32.81 33.13 33.58 33.73 34.53 33.35 33.78 34.02 34.17 34.06 34.65 35.79 36.16
40.21 37.88 38.23 38.99 35.79 37.55 37.27 31.89 27.40 25.23 25.40 24.85 31.12 26.18 29.20 35.41 36.18 35.92 35.38 33.60 33.00 32.76 31.84 31.78 31.15 31.16 31.48 30.92 31.07 31.59 31.08 30.96 31.42 31.12 30.81 30.34 31.50 31.67 31.80 32.70 32.22 32.25 32.52 32.64
31.11 30.01 36.36 38.14 34.89 31.52 32.66 30.23 24.68 20.93 22.05 24.01 31.52 23.97 31.83 36.08 35.42 35.23 37.27 35.43 34.07 32.47 32.27 31.38 31.19 30.50 30.46 30.95 30.64 30.25 30.15 29.61 30.16 30.28 29.73 29.61 30.28 31.01 30.98 30.99 31.17 30.62 31.47 31.96
30.98 33.13 36.95 37.51 37.17 35.77 32.62 28.64 32.17 26.97 29.08 23.24 26.35 32.45 32.53 34.51 33.62 33.73 33.58 34.67 32.50 31.94 31.38 30.91 30.63 30.02 29.17 28.97 29.45 29.58 29.54 29.71 30.08 29.90 29.32 28.71 29.06 28.44 28.35 29.73 30.01 29.57 31.11 31.74
34.36 28.19 36.12 36.87 36.49 35.40 32.83 34.69 26.74 27.27 22.50 21.25 25.90 28.05 28.46 31.66 33.91 34.33 33.14 32.80 32.96 33.52 32.41 31.06 30.09 29.28 28.66 28.29 28.40 28.93 29.34 29.17 29.33 29.41 29.15 29.27 28.61 28.99 28.70 28.56 28.14 29.75 30.04 30.60
35.04 32.60 33.40 35.05 33.01 32.34 32.15 30.91 30.76 30.54 28.45 22.29 20.97 25.60 34.85 34.86 36.72 36.34 35.33 35.98 34.47 33.66 31.91 30.34 29.59 29.23 28.33 27.52 27.20 27.48 28.43 28.29 28.61 29.36 29.06 28.84 29.37 28.90 28.06 27.40 27.88 28.11 29.60 29.73
34.73 34.61 29.33 34.11 34.53 35.43 33.89 31.56 31.71 25.92 26.05 27.15 25.74 26.68 39.10 37.16 36.89 37.70 37.50 38.25 36.59 35.53 32.95 31.06 29.88 28.45 27.16 27.26 26.79 26.59 27.16 27.38 27.98 28.62 28.55 28.77 28.68 28.57 28.00 27.62 28.16 28.81 28.22 29.09
36.87 34.11 27.15 30.14 30.19 32.20 30.49 33.17 32.84 32.13 31.03 24.13 22.52 26.18 37.85 35.73 34.92 37.07 36.61 36.97 37.40 35.93 32.87 30.83 28.87 27.85 27.70 27.22 26.88 26.72 27.17 27.29 28.53 28.21 27.39 27.51 27.91 27.89 27.69 27.73 28.11 28.47 28.29 28.24
40.58 35.58 32.88 28.52 31.60 35.41 31.88 35.19 35.77 35.32 27.67 26.08 28.01 30.59 36.18 38.07 37.75 35.83 35.25 36.28 37.03 35.43 33.18 30.51 29.11 28.38 28.14 28.03 27.57 27.13 26.89 27.46 27.83 27.79 27.38 26.33 25.89 26.39 26.96 27.55 27.60 27.91 27.85 27.09
36.78 32.00 34.57 35.78 36.44 35.80 33.51 33.30 34.05 31.92 33.24 29.51 31.94 32.32 36.16 37.70 32.89 33.58 35.54 36.12 35.43 35.05 32.33 31.09 30.18 29.13 28.01 27.73 27.03 27.05 27.14 27.12 27.40 26.71 26.22 25.79 26.50 26.52 26.33 26.28 26.15 26.44 26.69 26.77
36.64 31.65 31.36 29.42 34.82 35.03 31.67 33.84 34.78 34.95 34.45 33.87 34.03 32.65 38.61 33.63 36.21 35.76 33.25 32.64 32.04 32.84 32.57 30.95 30.53 29.47 27.93 27.01 26.68 26.97 26.92 26.37 26.99 26.14 25.54 26.22 26.12 25.76 25.49 25.45 25.50 25.69 25.47 25.11
32.02 30.50 29.95 29.12 33.22 31.90 28.32 32.98 33.42 33.75 35.04 33.61 28.36 33.84 34.64 33.00 32.92 33.10 30.86 29.81 29.53 30.78 31.16 29.31 29.67 28.77 27.05 26.99 27.57 26.95 25.68 26.24 25.84 25.54 25.80 25.74 25.57 24.94 24.74 24.76 24.34 23.66 23.27 23.51
32.83 31.15 31.25 28.31 30.33 23.43 32.48 35.93 35.65 33.82 34.75 35.65 34.75 33.34 32.75 32.01 34.42 32.51 28.10 25.95 26.81 28.52 28.49 28.07 26.94 27.15 26.52 27.02 26.01 25.23 26.19 25.66 25.32 24.88 24.73 24.90 24.31 23.43 23.62 22.99 22.21 21.24 21.21 20.91
38.67 33.73 29.83 27.76 27.03 31.10 33.86 32.16 32.08 30.39 29.66 34.30 34.22 35.74 36.66 36.00 31.90 29.06 26.89 27.17 26.32 28.99 28.94 26.69 26.10 25.80 25.81 24.47 25.61 25.84 25.95 25.53 24.59 23.51 23.42 23.38 23.09 21.50 21.61 20.98 19.76 20.32 19.43 19.24
32.15 34.50 31.49 30.98 26.28 23.84 28.89 31.02 33.56 31.96 25.25 34.78 34.74 33.49 31.01 30.41 28.38 27.68 25.00 26.48 25.56 27.12 26.45 24.56 23.58 24.48 24.56 24.67 25.35 24.77 24.32 23.61 22.66 22.39 22.31 22.62 22.21 21.22 19.96 19.15 19.18 19.65 19.02 20.45
27.69 29.60 27.83 27.91 27.52 29.78 30.37 31.75 32.91 24.31 27.46 33.12 32.14 31.33 29.82 28.43 28.35 24.33 25.63 24.54 24.43 23.72 23.29 25.11 24.95 23.48 23.72 24.28 24.21 23.25 23.10 21.39 21.85 22.27 21.85 21.50 21.17 20.19 19.78 19.08 18.71 18.48 18.57 18.83
28.52 27.63 26.00 28.39 27.25 25.08 31.85 32.82 30.95 30.20 32.62 32.15 30.92 31.46 28.83 29.39 26.47 26.11 23.80 22.94 23.26 23.43 24.49 24.84 23.35 22.65 23.21 23.37 22.47 21.32 20.39 21.18 21.42 20.93 20.65 20.19 19.77 20.58 21.42 19.52 19.34 19.14 16.24 15.25
31.31 33.77 32.38 32.74 31.96 35.81 35.04 34.78 32.06 31.50 30.49 29.59 27.78 28.24 28.21 28.29 25.84 24.37 23.47 23.33 23.82 22.74 22.38 23.34 22.59 22.19 22.52 21.65 20.64 18.80 19.50 19.97 19.22 18.26 17.78 17.83 18.22 19.38 19.76 18.69 17.37 16.71 15.15 13.55
35.34 38.83 35.00 33.21 32.98 33.20 30.64 29.51 29.30 28.59 27.29 26.82 26.71 26.64 27.09 26.04 23.81 22.19 22.05 21.66 21.33 21.87 21.26 21.98 21.34 20.26 19.36 20.17 20.18 18.49 18.73 18.31 17.11 15.70 15.93 15.97 15.65 17.05 16.14 18.08 18.26 15.76 10.96 9.91
37.80 37.10 34.83 34.14 36.74 28.12 26.60 26.77 26.67 25.69 24.41 25.20 24.83 24.92 25.36 23.47 22.58 20.68 19.96 19.97 20.69 20.51 20.11 20.26 18.60 18.20 17.51 17.54 17.26 17.39 17.99 16.64 15.56 14.67 14.77 14.34 16.25 14.57 14.70 16.95 14.07 16.03 16.24 17.91
36.99 35.58 32.00 32.14 26.43 27.50 24.30 24.77 25.78 22.23 22.83 23.35 22.40 20.80 20.51 20.17 19.47 19.52 18.19 19.24 18.98 18.00 17.91 17.57 17.28 16.87 15.70 15.67 15.37 16.26 15.88 15.23 12.94 12.63 14.22 12.68 13.22 12.73 15.23 13.38 12.00 20.45 22.12 23.48
MSLP
1016.31 1016.89 1017.58 1017.85 1018.05 1018.18 1018.16 1017.96 1017.49 1017.07 1017.33 1017.60 1017.54 1017.42 1017.46 1018.18 1018.90 1019.62 1020.46 1021.06 1021.80 1022.44 1022.90 1023.20 1023.41 1023.50 1023.52 1023.43 1023.14 1022.53 1021.88 1020.94 1019.86 1018.81 1017.93 1017.20 1017.12 1017.49 1017.65 1017.63 1017.80 1017.65 1017.40 1017.03
1016.94 1017.51 1018.09 1018.18 1018.09 1018.20 1018.03 1017.93 1017.92 1017.51 1017.41 1017.64 1016.96 1016.57 1016.62 1017.49 1018.58 1019.39 1020.34 1021.09 1021.79 1022.36 1022.94 1023.39 1023.56 1023.89 1023.98 1024.07 1023.86 1023.27 1022.68 1021.87 1020.84 1019.77 1019.22 1018.70 1018.45 1018.82 1019.06 1018.98 1019.06 1019.08 1018.56 1018.40
1017.45 1018.22 1018.12 1018.12 1018.05 1018.28 1018.27 1018.45 1018.75 1018.83 1018.06 1017.11 1017.24 1016.72 1017.01 1017.97 1018.67 1019.61 1020.49 1021.24 1021.91 1022.53 1023.04 1023.43 1023.79 1024.25 1024.21 1024.27 1024.24 1023.94 1023.45 1022.90 1021.93 1020.68 1020.02 1019.57 1019.36 1019.62 1019.67 1020.11 1020.07 1020.20 1019.86 1019.19
1018.03 1018.30 1018.43 1018.39 1018.38 1018.95 1018.66 1018.56 1018.94 1019.10 1019.15 1018.56 1017.94 1018.01 1017.24 1017.81 1018.64 1019.29 1020.17 1020.98 1021.84 1022.68 1023.25 1023.67 1024.04 1024.36 1024.52 1024.62 1024.67 1024.58 1024.14 1023.50 1022.77 1021.88 1020.93 1020.73 1020.89 1021.01 1021.38 1021.42 1021.12 1020.78 1020.67 1020.45
1018.55 1018.56 1018.77 1018.77 1019.06 1019.32 1018.97 1018.61 1018.85 1019.09 1019.53 1019.34 1018.53 1018.56 1017.03 1017.46 1017.94 1018.50 1019.39 1020.51 1021.56 1022.50 1023.29 1023.87 1024.27 1024.62 1024.77 1024.77 1024.49 1024.40 1024.57 1024.06 1023.68 1023.05 1022.55 1021.90 1021.95 1022.13 1022.24 1021.95 1021.83 1021.58 1021.52 1021.03
1018.63 1019.04 1019.22 1019.29 1019.14 1019.19 1019.16 1018.80 1018.15 1018.83 1019.63 1019.76 1018.73 1018.77 1017.40 1017.09 1017.39 1017.87 1018.83 1020.09 1021.37 1022.44 1023.14 1023.56 1023.97 1024.31 1024.71 1024.97 1024.73 1024.43 1024.60 1024.60 1024.20 1023.83 1023.64 1023.26 1022.93 1022.99 1023.01 1022.67 1022.39 1022.37 1022.17 1021.59
1018.94 1019.20 1019.46 1019.57 1019.28 1019.25 1019.57 1019.36 1019.39 1019.80 1020.07 1019.46 1018.93 1019.08 1017.00 1017.10 1017.54 1018.18 1019.07 1020.11 1021.25 1022.17 1023.12 1023.65 1023.90 1024.31 1024.79 1024.86 1024.76 1024.55 1024.67 1024.82 1024.62 1024.43 1024.16 1024.07 1023.81 1023.64 1023.50 1023.26 1023.22 1022.97 1022.62 1022.14
1020.04 1019.68 1019.69 1019.90 1020.15 1020.30 1020.06 1020.32 1020.91 1021.31 1020.59 1019.96 1019.03 1018.46 1016.96 1017.12 1017.68 1018.32 1018.87 1019.67 1020.85 1021.78 1022.54 1023.30 1023.85 1024.25 1024.57 1024.90 1024.97 1024.91 1024.79 1024.86 1024.67 1024.70 1024.61 1024.66 1024.54 1024.23 1024.13 1023.90 1023.72 1023.66 1023.47 1023.06
1020.81 1020.16 1019.98 1020.00 1020.23 1020.68 1020.30 1020.57 1021.22 1021.33 1020.58 1020.30 1018.69 1017.12 1017.10 1017.38 1017.88 1018.33 1018.97 1019.80 1020.75 1021.61 1022.34 1023.16 1023.76 1024.19 1024.58 1024.95 1025.26 1025.40 1025.23 1025.10 1024.85 1024.93 1024.78 1024.77 1025.00 1024.93 1024.78 1024.53 1024.34 1024.03 1023.69 1023.37
1021.52 1021.27 1020.13 1020.23 1020.44 1020.63 1020.88 1021.19 1021.41 1021.77 1021.31 1020.26 1018.22 1017.24 1017.11 1017.04 1017.30 1018.14 1018.92 1019.61 1020.30 1021.06 1021.89 1022.77 1023.64 1024.46 1024.93 1025.18 1025.35 1025.42 1025.50 1025.53 1025.43 1025.11 1025.06 1025.06 1025.17 1025.33 1025.20 1025.03 1024.84 1024.58 1024.36 1024.18
1021.88 1022.05 1020.86 1020.62 1020.56 1020.47 1021.16 1021.18 1021.35 1021.63 1021.61 1021.21 1019.49 1017.57 1016.18 1016.51 1016.63 1017.09 1017.64 1018.34 1019.30 1020.36 1021.19 1022.31 1023.17 1023.95 1024.54 1025.06 1025.37 1025.47 1025.56 1025.77 1025.68 1025.60 1025.38 1025.34 1025.38 1025.49 1025.51 1025.44 1025.32 1025.10 1024.80 1024.61
1022.29 1022.41 1022.01 1020.91 1020.85 1020.72 1020.97 1021.35 1021.53 1021.93 1021.69 1021.36 1020.61 1017.50 1015.56 1015.84 1016.24 1016.72 1017.37 1017.62 1018.22 1018.94 1020.18 1021.36 1022.35 1023.37 1024.30 1024.91 1025.31 1025.43 1025.63 1025.91 1026.02 1025.91 1025.78 1025.73 1025.70 1025.72 1025.76 1025.68 1025.52 1025.32 1025.13 1024.91
1022.55 1022.71 1022.55 1021.18 1021.59 1021.49 1021.51 1021.41 1021.78 1021.94 1021.90 1021.41 1021.19 1017.54 1015.97 1015.87 1016.52 1016.83 1017.21 1017.53 1017.94 1018.44 1019.44 1020.70 1021.88 1023.02 1023.97 1024.68 1025.26 1025.74 1025.85 1026.00 1026.08 1026.13 1026.15 1026.03 1025.95 1025.85 1025.85 1025.82 1025.75 1025.59 1025.32 1025.09
1022.93 1022.95 1022.89 1022.38 1021.61 1021.86 1021.61 1021.14 1021.49 1021.77 1021.75 1020.69 1019.46 1017.43 1016.69 1016.63 1017.02 1017.41 1018.02 1018.22 1018.51 1018.57 1019.32 1020.49 1021.73 1022.75 1023.67 1024.43 1025.22 1025.83 1026.18 1026.21 1026.31 1026.43 1026.46 1026.48 1026.37 1026.31 1026.21 1026.12 1025.99 1025.80 1025.62 1025.44
1023.27 1023.21 1022.95 1022.32 1021.92 1021.84 1021.28 1020.51 1020.30 1020.76 1020.05 1020.42 1017.72 1018.22 1016.46 1017.30 1017.64 1017.90 1018.26 1018.83 1019.22 1019.38 1019.84 1020.76 1021.72 1022.59 1023.59 1024.62 1025.47 1026.18 1026.50 1026.57 1026.63 1026.72 1026.83 1026.83 1026.71 1026.60 1026.45 1026.26 1026.15 1025.98 1025.79 1025.64
1023.43 1023.47 1023.41 1022.86 1022.18 1021.48 1020.59 1019.30 1018.92 1019.14 1019.00 1018.95 1017.99 1017.58 1017.18 1017.68 1017.99 1018.80 1019.42 1019.90 1020.03 1020.00 1020.13 1020.85 1021.73 1022.71 1023.73 1024.63 1025.41 1026.33 1027.04 1027.15 1027.03 1026.95 1027.02 1027.04 1027.00 1026.86 1026.70 1026.48 1026.25 1025.98 1025.76 1025.59
1023.70 1024.16 1024.17 1022.56 1022.10 1021.63 1020.21 1017.66 1017.66 1017.81 1017.68 1017.90 1018.05 1017.54 1017.72 1018.72 1019.53 1020.24 1020.87 1021.20 1021.08 1021.02 1020.79 1021.27 1022.21 1023.26 1024.42 1025.24 1026.13 1026.92 1027.03 1027.11 1027.20 1027.41 1027.38 1027.22 1027.20 1027.12 1026.90 1026.75 1026.51 1026.27 1026.08 1025.82
1023.18 1024.18 1024.60 1023.66 1022.85 1021.11 1018.06 1017.51 1017.37 1017.75 1017.90 1018.12 1018.44 1019.19 1019.52 1020.04 1020.52 1021.19 1021.87 1022.02 1022.10 1022.07 1022.19 1022.29 1022.89 1024.01 1025.07 1026.15 1026.88 1027.27 1027.84 1027.87 1027.83 1027.41 1027.30 1027.31 1027.30 1027.33 1027.17 1027.01 1026.86 1026.67 1026.43 1026.21
1022.65 1023.95 1024.35 1023.93 1022.46 1019.83 1018.09 1018.05 1018.38 1018.71 1019.30 1019.49 1019.72 1019.95 1020.06 1020.26 1021.17 1021.92 1022.62 1022.99 1023.29 1023.17 1023.23 1023.79 1024.41 1025.46 1026.34 1026.83 1027.41 1027.87 1028.06 1028.06 1028.00 1027.78 1027.59 1027.48 1027.42 1027.44 1027.36 1027.20 1027.11 1026.83 1026.57 1026.37
1023.34 1023.72 1024.39 1023.76 1022.80 1020.81 1019.12 1018.88 1019.05 1019.44 1020.45 1021.03 1021.49 1021.64 1021.82 1021.99 1022.60 1023.03 1023.69 1024.10 1024.53 1024.91 1025.08 1025.40 1026.00 1026.74 1027.42 1027.75 1027.87 1028.00 1028.11 1028.11 1027.95 1027.89 1027.77 1027.65 1027.55 1027.45 1027.44 1027.36 1027.17 1026.96 1026.73 1026.49
1023.34 1023.59 1023.48 1023.15 1022.42 1020.63 1019.65 1019.56 1019.72 1021.19 1022.39 1022.43 1022.78 1022.66 1023.10 1023.81 1024.06 1024.40 1024.86 1025.39 1025.76 1026.09 1026.37 1026.82 1027.23 1027.74 1028.17 1028.35 1028.29 1028.21 1028.24 1028.03 1028.01 1027.94 1027.89 1027.78 1027.62 1027.50 1027.39 1027.27 1027.14 1026.95 1026.74 1026.55
1021.49 1022.13 1022.19 1022.31 1021.94 1021.00 1020.31 1020.74 1021.90 1023.08 1023.24 1023.67 1023.79 1023.89 1023.98 1024.36 1024.87 1025.21 1025.86 1026.57 1027.05 1027.33 1027.48 1027.74 1027.98 1028.24 1028.63 1028.72 1028.61 1028.51 1028.30 1028.11 1028.05 1028.03 1027.96 1027.80 1027.66 1027.54 1027.43 1027.32 1027.13 1026.87 1026.79 1026.67
1020.14 1020.14 1020.52 1021.09 1020.27 1020.66 1021.73 1022.03 1023.29 1023.93 1024.24 1024.72 1025.02 1024.90 1024.73 1024.79 1025.42 1026.14 1026.79 1027.33 1027.61 1027.94 1028.21 1028.41 1028.55 1028.55 1028.73 1028.87 1028.66 1028.49 1028.40 1028.30 1028.28 1028.28 1028.20 1028.05 1027.89 1027.72 1027.54 1027.28 1027.07 1026.91 1026.79 1026.71
1020.26 1020.44 1021.02 1021.47 1020.53 1021.86 1023.00 1024.02 1024.50 1025.20 1025.50 1025.67 1025.85 1025.83 1025.64 1025.83 1026.38 1027.16 1027.67 1028.11 1028.40 1028.61 1028.65 1028.77 1028.88 1028.81 1028.80 1028.69 1028.65 1028.71 1028.62 1028.60 1028.53 1028.54 1028.41 1028.23 1028.06 1027.67 1027.57 1027.42 1027.21 1026.95 1026.89 1026.52
1020.65 1021.69 1021.61 1021.47 1021.88 1023.23 1024.42 1025.23 1025.83 1025.85 1026.18 1026.54 1026.57 1026.71 1026.70 1026.94 1027.34 1027.87 1028.36 1028.75 1029.05 1029.20 1029.34 1029.24 1029.27 1028.93 1028.89 1028.96 1028.98 1028.89 1028.77 1028.80 1028.78 1028.76 1028.70 1028.46 1028.03 1027.99 1027.77 1027.42 1027.10 1026.61 1026.22 1025.77
1021.54 1021.90 1022.50 1022.60 1023.90 1024.35 1025.38 1026.08 1026.82 1027.25 1027.28 1027.31 1027.36 1027.87 1028.18 1028.21 1028.43 1028.72 1029.06 1029.33 1029.61 1029.65 1029.63 1029.41 1029.34 1029.28 1029.25 1029.28 1029.25 1029.07 1028.93 1028.93 1029.08 1029.04 1028.86 1028.68 1028.32 1028.02 1027.66 1027.48 1026.88 1026.45 1025.82 1025.20
Wind_Speed
3 6 6 7 6 6 6 8 9 6 5 2 7 10 9 10 7 7 5 3 6 3 4 5 7 7 11 13 15 16 16 16 11 9 7 5 7 9 9 10 15 14 13 14
0 5 4 5 4 6 9 8 7 3 3 9 7 15 11 13 7 6 7 4 5 3 4 5 6 6 7 10 12 14 15 15 11 8 7 6 5 7 8 9 12 15 14 14
4 3 3 5 6 8 8 6 7 7 12 9 7 3 3 6 7 6 4 3 4 4 3 4 5 6 7 7 9 12 14 14 13 11 7 6 6 6 8 11 10 12 14 15
3 3 4 7 3 6 5 5 7 8 7 4 5 6 4 6 6 8 8 8 6 5 4 4 4 4 5 5 3 6 10 12 12 13 10 13 10 8 6 6 7 9 13 14
1 3 4 6 3 4 7 9 9 3 4 6 1 1 3 6 7 9 9 9 8 6 4 4 4 4 4 3 3 5 6 8 11 13 12 8 10 6 5 6 9 10 10 13
1 3 1 4 7 6 10 10 9 5 1 1 3 4 7 4 2 3 7 9 8 7 5 5 4 5 5 4 4 6 6 7 7 8 10 10 11 9 7 8 8 7 7 9
5 4 4 2 6 2 8 7 4 5 2 5 4 1 10 5 3 4 2 9 8 7 5 5 4 4 4 4 4 5 7 6 6 7 8 10 9 7 8 8 7 8 7 8
4 5 3 3 3 3 5 3 3 4 3 7 5 6 6 6 4 2 4 9 9 8 7 7 5 3 4 4 5 6 6 6 6 6 8 7 9 6 5 5 5 6 7 8
6 4 3 3 1 2 3 2 1 4 7 2 6 6 2 3 4 3 4 5 7 8 7 7 6 5 4 4 5 5 6 6 6 6 5 6 6 6 6 8 6 4 6 7
2 6 2 3 2 2 2 2 1 2 5 6 6 6 5 4 5 6 6 8 8 8 8 8 7 5 3 4 3 4 5 6 6 6 5 5 6 6 6 5 6 8 7 7
1 2 6 1 5 2 2 2 3 1 2 3 6 6 4 4 3 6 10 10 9 9 9 8 8 7 7 5 3 4 4 5 5 5 5 6 5 5 5 5 6 5 6 7
2 3 5 8 5 5 3 3 3 1 3 4 4 9 8 7 1 2 5 5 9 9 10 9 9 8 7 6 4 4 4 5 4 5 5 5 5 6 6 6 6 6 5 5
3 3 5 2 1 3 2 4 5 6 3 5 4 8 1 5 3 5 7 8 4 8 10 9 9 8 7 6 6 4 4 4 4 5 5 5 6 6 6 6 7 7 7 7
3 4 7 7 6 8 9 12 8 9 6 6 15 19 21 15 13 10 8 7 8 5 9 8 8 7 7 7 6 5 4 4 4 4 4 5 5 6 5 5 5 5 6 6
3 5 9 14 12 12 17 22 16 14 18 13 22 17 25 14 4 3 5 7 7 8 7 8 8 7 8 7 6 5 4 4 3 3 4 4 3 4 4 4 4 4 3 4
4 4 2 6 13 15 14 21 20 16 18 18 24 23 15 2 6 8 8 7 7 7 3 8 8 8 9 9 7 8 2 2 3 3 3 4 4 5 4 5 6 5 5 4
6 3 0 10 2 5 11 11 4 6 7 6 6 7 4 7 7 7 8 5 7 8 4 7 8 8 8 10 9 3 4 3 5 5 4 3 5 5 5 5 5 5 6 6
5 4 1 6 4 5 7 3 1 3 6 6 6 9 5 2 3 3 6 5 7 6 5 6 9 10 11 9 5 6 3 1 1 3 3 3 4 5 5 5 5 6 5 5
2 6 3 4 5 12 13 2 2 2 2 6 4 7 6 6 4 3 6 6 7 7 8 8 10 11 8 7 5 3 1 1 2 3 3 3 4 5 5 5 5 5 5 4
2 2 4 3 6 6 1 1 2 2 4 9 10 8 8 7 8 2 6 6 7 8 8 8 8 9 6 4 3 1 1 2 3 4 4 4 4 4 5 5 5 4 4 5
3 3 9 11 8 9 2 3 2 0 2 9 9 6 5 4 2 3 3 6 7 6 8 9 6 5 4 3 2 2 2 2 3 3 4 4 5 5 5 5 4 4 5 5
8 7 5 4 5 10 2 1 1 2 3 4 4 6 4 6 1 2 6 5 5 4 5 5 4 4 3 3 3 3 3 4 4 4 5 5 5 5 6 5 5 5 5 5
5 8 4 9 5 4 3 2 5 3 2 4 5 7 7 4 3 4 4 4 5 6 5 5 3 3 2 2 2 4 4 5 5 5 5 5 5 5 6 5 5 5 5 3
3 2 3 3 1 5 7 8 5 3 3 4 6 6 6 4 5 5 5 4 4 4 4 3 3 3 3 2 5 4 5 5 5 5 5 5 5 6 5 4 4 3 2 2
3 2 3 7 8 8 6 5 2 4 4 3 6 9 6 5 6 6 5 4 4 4 4 3 2 3 4 4 4 5 5 5 5 5 5 5 4 5 5 5 2 3 4 6
5 5 4 8 1 1 3 4 4 3 4 5 6 8 9 7 6 6 5 4 4 3 2 3 4 4 4 5 5 5 4 5 5 4 4 4 3 3 4 3 4 11 15 17
Wind_Direction
31 49 31 4 7 338 300 287 285 354 94 322 258 276 280 149 164 164 175 124 98 54 62 57 32 37 20 8 355 354 349 348 351 357 353 360 39 40 34 32 29 21 16 9
115 72 27 326 268 280 297 309 1 330 353 302 284 283 277 166 169 177 149 172 140 114 60 42 49 22 44 16 3 355 354 351 358 10 352 10 19 46 43 33 27 21 21 11
50 53 309 291 313 357 332 31 345 301 318 270 321 320 104 83 123 107 137 196 157 135 120 77 56 27 18 21 13 2 357 353 4 16 36 37 44 37 32 22 23 20 18 19
59 130 325 309 358 14 300 34 333 316 348 307 17 293 171 161 199 188 196 186 185 158 127 101 77 61 44 9 26 4 7 11 8 13 41 54 55 46 36 25 24 22 23 24
317 16 351 318 25 350 268 332 283 252 299 307 4 263 236 166 222 207 198 176 164 156 150 127 105 88 70 10 67 51 7 22 23 23 28 51 55 46 35 29 30 27 20 29
173 110 297 336 301 253 279 295 291 153 200 318 127 92 281 193 88 32 163 150 147 153 162 130 125 111 82 33 23 69 38 21 19 34 29 37 56 46 29 31 32 22 16 19
315 134 113 283 318 164 345 343 347 360 339 240 149 333 244 131 92 27 347 147 150 154 178 164 150 101 67 51 34 52 50 26 38 30 36 33 20 46 38 34 24 12 20 18
352 332 31 4 54 300 298 350 93 304 325 290 203 243 275 104 90 18 332 145 155 167 182 170 163 143 109 68 37 50 51 41 30 42 42 35 34 28 27 26 38 38 15 20
357 295 160 89 12 21 344 42 24 275 267 240 247 251 84 140 186 195 222 158 188 190 187 178 167 174 128 84 54 29 47 42 50 41 53 48 29 34 28 30 22 16 26 24
16 299 23 135 200 223 265 344 323 275 301 299 275 294 284 229 233 197 217 220 221 204 186 171 166 159 120 111 82 49 38 45 30 36 40 55 57 29 29 36 33 25 24 17
345 193 291 215 202 187 184 240 215 271 266 269 309 261 180 47 64 194 209 211 204 200 186 167 163 157 155 138 121 100 64 41 39 29 40 38 33 53 42 33 21 24 25 14
62 304 282 255 59 57 25 307 319 262 302 259 301 272 243 116 188 238 290 239 203 186 171 165 163 147 148 159 151 116 88 73 38 29 46 45 36 29 28 22 21 15 20 23
121 231 302 269 79 25 237 185 237 299 327 227 277 266 52 137 210 242 245 262 281 181 156 156 146 150 158 152 134 115 91 76 49 36 28 34 31 34 29 21 9 5 3 13
99 241 216 246 286 328 290 281 265 262 252 238 242 273 283 304 342 22 12 23 353 222 161 147 141 150 151 136 131 129 101 82 57 42 40 31 20 13 12 12 8 3 1 7
202 251 239 260 277 276 271 278 272 244 250 249 268 266 276 304 52 17 13 13 355 334 147 148 150 153 134 121 109 98 82 73 50 55 40 23 6 352 355 357 351 342 359 359
154 261 5 272 263 256 270 265 269 245 252 253 262 271 284 240 29 22 16 356 337 332 192 152 146 137 134 137 120 78 54 46 12 40 31 8 359 349 355 344 335 336 338 343
160 234 175 282 1 353 279 257 195 195 208 210 227 257 20 46 32 10 335 348 340 339 328 135 125 118 99 93 94 155 118 53 30 19 336 357 352 338 336 333 328 342 340 340
173 170 152 284 319 236 245 345 280 236 273 294 347 48 60 35 325 353 36 10 349 12 48 91 98 99 91 90 115 83 55 77 304 301 359 355 345 333 330 331 337 337 325 331
336 141 230 248 230 286 276 118 33 18 14 29 37 348 333 14 337 137 41 22 9 26 57 68 81 89 101 109 89 123 196 332 314 317 321 345 341 327 324 327 327 319 329 330
23 304 183 207 255 263 123 69 15 133 249 20 6 354 9 7 314 324 33 37 44 34 47 73 80 86 93 92 91 105 82 320 306 13 346 333 320 316 315 320 320 304 310 300
158 175 223 233 251 277 77 165 219 228 274 358 352 353 346 295 284 66 45 59 60 56 67 60 74 88 83 74 43 44 3 328 32 338 323 311 305 311 303 310 306 313 311 316
174 183 194 207 231 255 166 244 191 7 331 320 347 332 316 292 327 115 76 81 84 84 79 86 91 91 82 55 21 355 316 35 356 343 321 310 321 330 325 311 300 304 326 318
252 189 199 196 212 134 40 106 79 30 314 354 327 337 330 316 129 123 120 128 97 81 70 58 68 91 100 47 306 324 2 360 353 337 317 327 333 323 308 314 325 318 325 320
334 45 233 306 206 112 103 83 65 47 18 4 358 349 358 61 92 104 105 93 87 86 79 61 43 33 344 47 357 349 348 351 342 319 321 321 312 305 342 319 304 308 311 287
155 151 239 250 261 105 89 79 43 71 40 41 48 31 29 89 82 90 84 77 77 73 40 37 348 325 7 7 342 341 347 347 339 329 312 299 334 322 297 290 267 281 267 272
184 211 219 288 78 321 77 60 44 65 60 44 77 65 35 58 77 79 71 65 62 46 360 356 5 360 354 342 334 330 352 1 336 312 324 318 296 295 313 305 297 310 310 311